Regional Weather Roundup
Issued by NWS Goodland, KS

Home | Current Version | Previous Version | Text Only | Print | Product List | Glossary On
Versions: 1 2 3 4 5 6 7 8 9 10 11 12 13 14 15 16 17 18 19 20 21 22 23 24 25 26 27 28 29 30 31 32 33 34 35 36 37 38 39 40 41 42 43 44 45 46 47 48 49 50
000
ASUS43 KGLD 020208
RWRGLD

GOODLAND FORECAST AREA HOURLY WEATHER ROUNDUP
NATIONAL WEATHER SERVICE GOODLAND KS
800 PM MDT SUN MAY 01 2016

...OFFICIAL OBSERVATIONS...

CITY           SKY/WX    TMP DP  RH WIND       PRES   REMARKS
GOODLAND KS    CLOUDY    40  32  73 N9        30.23R
HILL CITY KS   CLOUDY    47  40  76 E3        30.21R
IMPERIAL NEB   MOCLDY    44  33  65 N8        30.24R
MCCOOK NEB     CLOUDY    49  36  61 CALM      30.20R
AKRON CO       CLEAR     35  28  75 N3        30.26S
BURLINGTON CO  CLOUDY    40  28  62 N9        30.25R
LIMON CO       CLEAR     31  27  85 N6        30.27R
$$

...UNOFFICIAL OBSERVATIONS...

CITY           SKY/WX    TMP DP  RH WIND       PRES   REMARKS
COLBY KS       CLOUDY    45  45 100 CALM      30.22S
LENORA KS        N/A     45  32  60 MISG        N/A
NORTON KS      MOCLDY    45  37  76 E5        30.19S
SHARON SPRINGS   N/A     44  36  74 N5          N/A
KIT CARSON CO    N/A     41  32  69 MISG        N/A
YUMA CO          N/A     40  32  74 CALM        N/A
$$




USA.gov is the U.S. government's official web portal to all federal, state and local government web resources and services.